Probability
21 24 27 27 25 26 25 21 20 21 20 17 15 11 6 3 1 1 2 3 6 7 6 6 6 7 7 6 4 3 4 5 5 3 2 2 3 3 3 3 2 1 1
24 26 27 27 28 29 27 23 21 21 20 18 15 12 6 3 2 2 3 5 8 9 8 8 8 8 7 6 4 3 4 5 5 3 3 3 3 3 2 2 2 2 2
30 30 28 28 30 32 30 26 23 21 20 19 18 14 9 5 4 3 4 6 9 8 8 9 10 9 9 8 6 5 5 5 5 4 3 3 3 2 2 2 3 3 3
34 34 32 31 33 35 35 33 29 24 23 23 22 18 13 10 7 6 6 7 7 7 8 8 9 9 10 10 9 7 7 6 5 4 4 3 3 3 3 3 3 3 3
36 37 37 36 38 39 39 38 35 30 28 28 25 22 18 15 12 10 9 9 8 8 8 8 8 9 10 11 11 10 9 7 5 5 4 4 3 4 5 5 4 3 3
39 39 39 38 39 40 40 39 37 35 34 33 29 25 22 20 17 14 13 12 11 11 11 10 9 9 10 12 12 11 10 8 6 5 4 3 3 4 6 6 5 4 3
40 40 38 37 38 38 39 40 39 37 38 37 32 27 26 24 20 16 15 15 15 16 15 13 11 11 12 14 13 12 11 9 7 6 5 5 5 5 6 6 5 3 1
39 38 36 36 37 37 39 41 40 38 39 38 32 27 26 25 21 17 16 17 18 18 18 16 15 15 15 15 14 13 12 9 7 7 7 7 6 6 6 6 4 2 0
37 37 36 35 34 35 37 39 40 38 36 34 30 25 24 24 22 18 17 19 19 18 17 16 16 16 15 14 13 12 11 9 6 6 6 6 4 4 5 3 2 0 0
36 37 35 32 31 31 33 36 37 36 33 30 26 24 24 25 25 22 20 20 19 17 16 15 15 14 12 10 10 9 9 7 4 4 3 3 3 3 3 1 0 0 0
37 37 35 32 32 33 33 35 36 33 30 28 26 26 27 28 26 24 21 19 17 15 14 14 13 12 10 9 8 7 6 4 4 3 3 3 3 2 1 0 0 0 0
39 39 37 36 37 37 36 35 33 30 28 28 28 28 29 27 24 21 18 16 14 12 12 12 13 12 12 10 7 6 5 4 4 5 5 4 2 1 0 0 0 0 0
41 40 39 37 37 37 36 34 32 31 30 29 29 28 26 23 20 16 14 11 10 10 10 11 12 13 12 10 7 4 3 4 5 6 6 5 2 0 0 1 0 0 0
38 38 38 36 34 35 35 34 33 32 31 29 28 26 22 18 15 12 9 7 6 6 7 9 11 12 10 8 6 3 2 2 4 5 6 4 1 0 0 0 0 0 0
33 33 32 33 33 35 35 34 32 30 28 27 26 21 16 12 10 8 6 4 3 3 4 7 9 11 9 6 4 3 2 2 2 3 3 2 1 0 0 0 0 0 0
29 27 26 29 31 32 32 31 27 25 24 23 21 16 11 8 7 4 3 2 1 1 2 5 8 9 7 4 2 2 2 2 1 1 1 1 0 0 0 0 0 0 0
26 24 22 24 26 28 29 26 23 21 22 21 18 15 12 10 7 4 2 1 1 1 1 3 5 6 5 3 1 0 1 1 1 0 0 0 0 0 0 0 0 0 0
23 21 20 19 21 25 26 24 21 21 23 21 17 16 15 13 10 6 2 1 2 2 2 2 3 3 3 1 0 0 0 0 0 0 0 0 0 0 0 0 0 0 0
20 19 19 19 19 21 24 23 21 21 20 18 18 16 16 14 11 7 3 3 3 3 3 3 3 2 2 1 0 0 0 0 0 0 0 0 0 0 0 0 0 0 0
19 20 20 20 20 20 21 21 18 16 13 13 15 15 14 13 10 6 3 3 3 3 3 3 3 2 1 0 0 0 0 0 0 0 0 0 0 0 0 0 0 0 0
20 22 23 22 20 19 19 17 15 12 9 10 12 14 13 12 9 6 4 3 3 3 3 3 3 3 2 1 0 0 0 0 0 0 0 0 0 0 0 0 0 0 0
20 22 23 22 19 18 17 16 14 12 11 11 12 13 12 11 9 7 6 5 4 3 3 3 3 4 3 1 0 0 0 0 0 0 0 0 0 0 0 0 0 0 0
17 19 21 20 19 18 17 17 15 13 12 12 13 12 10 8 8 7 7 7 5 4 3 3 4 4 4 3 2 0 0 0 0 0 0 0 0 0 0 0 0 0 0
12 14 16 17 17 17 17 17 15 14 12 11 11 10 8 6 6 6 7 7 6 5 5 4 5 5 5 5 4 1 0 0 0 0 0 0 0 0 0 0 0 0 0
7 9 12 13 13 15 15 15 13 12 11 9 9 8 7 5 4 5 5 5 5 5 5 4 4 3 4 4 3 2 0 0 0 0 0 0 0 0 0 0 0 0 0
5 7 9 9 10 12 13 13 11 10 9 8 8 7 6 5 4 4 4 3 2 3 3 3 2 2 1 2 1 1 0 0 0 0 0 0 0 0 0 0 0 0 0
Wind_Speed
9 9 10 11 9 8 9 9 8 6 5 4 3 2 2 1 1 1 2 2 1 1 2 1 1 1 2 1 1 1 1 1 1 2 2 2 1 0 1 1 2 2 2
8 8 9 10 10 10 9 9 8 7 6 4 3 3 3 1 1 1 1 1 1 2 2 1 1 1 2 2 1 1 1 0 1 2 2 2 3 2 0 1 2 2 2
13 10 9 9 9 10 10 9 9 7 6 5 3 3 2 1 1 0 0 1 1 1 1 1 1 1 2 1 1 2 2 1 0 1 3 2 2 1 2 0 0 1 1
10 10 10 10 10 10 10 9 8 7 7 6 5 5 4 3 3 2 1 1 1 2 1 1 1 1 1 2 2 2 2 2 1 1 0 2 3 2 0 1 1 0 1
10 11 11 10 9 9 9 8 7 7 6 6 6 6 4 3 2 1 2 1 1 1 2 1 2 1 1 1 1 1 1 2 2 1 0 0 0 1 2 1 1 1 1
8 9 8 8 7 7 7 8 7 6 6 6 6 6 5 4 3 2 1 1 0 1 1 1 1 2 1 1 2 1 2 1 2 1 1 2 1 1 2 2 1 1 1
9 9 8 8 7 7 7 7 8 7 7 6 6 6 6 5 5 4 3 2 1 1 2 1 2 2 2 2 1 1 1 2 2 2 2 1 2 2 2 2 1 1 0
9 9 9 8 8 8 7 7 8 7 7 7 6 5 5 4 3 3 3 3 2 2 2 1 1 2 1 1 1 1 1 1 1 2 2 1 1 1 2 3 3 2 0
8 9 8 7 8 8 7 7 7 6 6 6 6 5 4 4 4 3 3 2 2 1 1 1 1 1 1 1 1 1 1 1 1 1 1 1 1 1 1 2 3 4 2
7 8 7 7 7 7 6 6 6 6 5 6 5 4 4 4 4 3 3 2 2 1 1 1 1 1 1 1 1 1 0 0 1 0 1 1 1 0 1 1 2 2 4
8 8 7 6 6 6 6 5 5 5 5 5 4 4 3 3 3 3 3 2 2 2 2 1 1 1 1 1 1 1 0 0 0 0 1 1 1 0 0 1 1 2 3
6 7 7 7 6 6 6 6 5 5 5 4 4 3 3 3 3 3 3 3 2 2 2 2 2 2 1 1 1 1 1 1 1 1 0 1 1 0 0 1 1 1 2
6 5 6 6 6 6 6 5 5 5 5 5 4 4 3 3 3 2 2 2 3 2 2 2 2 2 1 1 1 1 1 1 1 1 1 1 1 1 0 1 1 1 1
6 5 4 4 5 5 6 5 5 5 5 5 4 4 3 3 3 2 2 2 2 3 2 2 2 2 2 1 1 1 1 1 1 1 1 2 2 2 2 1 1 1 2
6 5 5 4 4 4 5 5 4 4 5 5 4 3 3 3 2 2 2 2 2 2 2 2 2 1 1 1 1 1 1 1 0 0 1 1 2 2 2 2 2 2 2
5 4 4 5 5 5 4 4 4 4 5 5 4 3 2 2 2 2 2 2 2 2 2 2 2 2 1 1 1 1 1 1 1 1 1 1 1 1 1 2 3 4 4
5 5 5 4 4 4 5 3 4 4 5 4 4 3 3 2 1 2 2 2 2 2 2 2 2 2 1 1 1 1 1 1 1 1 1 0 0 0 0 0 1 1 2
5 6 5 4 2 2 4 3 3 4 4 4 4 3 3 3 2 2 2 2 2 2 1 2 2 2 2 2 2 1 1 1 1 1 2 1 1 1 1 1 0 1 1
5 4 4 4 3 3 4 4 3 3 4 4 3 3 3 3 2 2 2 2 2 1 1 2 2 2 1 2 2 2 1 1 1 1 1 1 1 1 1 2 0 1 2
4 4 4 4 4 2 3 4 3 3 3 3 3 4 4 4 3 3 2 1 1 1 1 1 2 3 2 2 2 2 1 1 1 1 1 1 1 1 1 2 2 2 2
4 5 5 4 3 3 4 4 2 2 2 2 2 2 3 4 3 3 2 1 1 1 1 1 1 2 2 2 2 3 2 2 1 1 1 2 2 1 1 1 2 3 2
4 4 4 3 2 3 4 3 2 1 1 2 2 2 2 3 3 2 1 1 2 1 1 1 0 0 1 1 2 3 3 3 2 2 2 2 3 2 2 1 2 1 1
4 3 4 3 2 2 3 3 2 2 2 2 1 1 1 1 2 3 2 1 1 1 1 1 1 1 1 0 0 2 2 2 2 2 3 3 2 2 1 2 2 1 1
3 3 4 3 2 1 1 2 2 2 3 2 1 1 1 1 1 1 2 2 2 2 2 2 2 1 1 1 1 1 0 1 0 1 1 1 1 1 1 1 1 1 1
2 3 4 3 2 2 1 1 2 2 2 2 1 1 1 1 1 1 0 1 1 2 3 3 3 3 2 3 3 2 1 1 1 0 1 1 1 1 1 1 1 1 0
3 3 3 3 2 2 1 1 2 3 3 2 1 1 1 1 1 1 1 2 0 1 3 3 3 3 3 3 3 2 2 2 3 3 1 0 1 1 1 1 1 1 1
Wind_Direction
181 167 167 165 159 159 159 161 158 162 156 151 149 145 160 153 131 144 142 144 139 125 118 122 115 122 123 131 116 111 98 80 95 78 37 6 10 106 183 171 154 167 171
175 169 165 162 162 167 168 166 167 165 166 169 165 160 155 162 175 172 146 160 152 148 141 134 146 142 126 106 106 118 126 127 110 117 94 24 358 340 12 149 170 167 159
177 173 167 167 165 170 172 171 173 168 166 159 141 121 88 69 51 225 236 221 167 143 134 150 145 139 145 153 152 146 146 155 341 130 137 140 212 294 341 319 151 160 165
177 173 171 173 175 178 173 170 171 169 168 159 152 151 158 177 202 199 199 196 172 165 159 164 151 149 155 157 182 170 156 142 174 308 100 173 167 147 290 342 344 201 167
174 173 174 176 176 173 171 169 165 167 164 163 165 162 172 189 186 160 155 174 200 193 192 184 164 155 165 175 183 171 159 163 168 178 158 78 53 126 146 198 287 346 301
165 161 167 164 164 165 165 165 162 166 164 167 168 168 173 176 163 161 164 184 224 248 236 192 177 180 186 189 196 188 178 184 167 166 163 161 168 189 160 179 204 223 289
157 157 158 159 160 161 163 165 164 169 171 168 173 179 181 179 178 182 177 177 192 224 242 217 199 198 200 200 197 184 196 191 178 188 199 195 200 182 163 153 174 164 323
156 158 164 164 163 161 159 163 167 171 171 171 179 185 182 181 186 186 177 184 199 214 217 207 205 207 204 198 179 193 216 185 193 203 202 204 225 184 166 168 151 126 15
155 154 156 158 159 159 162 163 164 166 173 173 174 180 180 182 186 184 178 186 201 201 179 174 177 196 193 183 164 184 219 196 207 211 198 204 241 219 179 154 151 149 163
154 151 150 155 158 159 160 159 159 168 172 169 173 176 181 184 179 171 180 177 170 157 150 184 191 188 184 158 138 164 254 150 249 201 155 205 242 229 128 138 147 153 158
157 151 146 144 140 137 136 137 151 150 148 151 154 156 165 169 168 169 183 181 172 167 173 175 172 175 188 178 151 177 169 135 304 307 157 237 223 171 142 121 121 135 140
146 141 136 130 126 127 135 144 155 154 155 147 142 146 150 151 153 165 180 172 168 172 170 170 160 172 175 184 168 178 174 178 222 247 187 268 221 121 210 152 131 145 149
121 119 126 133 140 142 144 146 153 156 150 142 141 142 143 153 163 172 171 163 158 163 162 162 168 171 167 159 182 184 186 196 216 209 202 245 159 178 197 128 124 142 134
125 125 133 142 150 152 151 148 150 150 145 141 141 147 158 160 163 166 158 161 154 155 166 171 172 171 165 167 190 174 189 208 238 227 209 209 185 193 194 170 157 145 121
128 138 145 146 141 140 143 143 146 148 145 141 145 160 166 155 154 160 153 152 153 164 170 157 152 153 156 182 165 188 202 197 217 277 258 217 182 164 180 175 178 155 143
140 146 142 143 145 141 146 148 150 152 144 147 157 162 155 147 148 155 146 147 148 152 137 148 153 154 171 141 149 166 173 182 167 204 255 243 215 224 182 167 170 162 164
147 144 138 145 157 156 144 154 163 153 147 151 158 161 156 146 172 157 130 137 142 130 134 152 157 173 195 161 146 167 163 166 179 192 212 270 350 294 201 37 50 171 181
136 137 138 140 144 146 129 141 152 149 150 151 157 156 157 147 135 132 144 155 139 135 155 166 182 185 204 176 170 164 149 156 201 195 187 189 278 281 187 160 29 292 261
140 139 147 141 127 133 133 128 131 140 143 152 161 168 160 145 143 150 164 158 142 148 173 181 181 175 212 195 191 173 131 139 261 248 201 179 219 281 149 140 174 308 301
123 122 120 114 119 131 130 124 125 134 158 175 176 173 166 158 168 183 180 166 153 169 180 188 198 186 200 202 183 163 138 141 266 302 306 270 252 284 150 166 182 237 269
120 119 116 121 136 134 123 124 126 160 194 171 154 158 168 170 172 175 170 161 155 149 175 203 229 205 203 196 168 154 156 173 192 244 274 273 277 283 252 194 197 224 230
107 112 116 115 124 132 127 133 162 196 159 144 148 159 171 179 164 159 172 162 154 156 189 202 306 303 219 180 169 160 172 177 178 222 248 265 273 268 256 225 236 245 169
125 119 123 114 108 134 138 154 196 164 133 132 157 173 168 171 162 166 177 174 166 173 194 179 187 258 296 313 214 190 199 202 197 234 249 271 275 266 257 257 250 227 153
130 129 124 121 125 135 135 170 177 146 129 136 157 174 163 165 162 164 170 177 191 187 184 189 198 217 242 278 295 279 262 308 305 310 315 333 343 15 347 320 294 238 196
145 137 138 144 161 153 136 144 147 126 120 133 136 121 144 145 141 131 163 184 201 194 189 201 194 188 219 239 218 197 216 219 221 117 53 41 21 360 341 330 318 293 247
145 139 144 153 163 152 162 185 163 143 139 142 150 147 161 160 161 142 37 5 192 246 220 211 199 213 217 205 205 220 222 210 160 125 124 194 247 253 260 269 282 269 245